Flag for Netherlands Weather past 2 weeks in Emmen, Netherlands

Now
42 °F

Quite cool.


Feels Like: 40 °F
Forecast: 37 / 44 °F
Wind: 3 mph from South

Location: Meppen

Current Time: Mar 1, 2015 at 11:06:59 PM

Latest Report: Mar 1, 2015 at 9:00 PM


Visibility: 6 mi

Pressure: 29.50 "Hg

Humidity: 72%

Dew point: 33 °F

Location of EmmenLocation

Historic Weather in Emmen — Graph

°F

Emmen temperature yesterday

Maximum temperature yesterday: 46 °F (at 3:00 PM)
Minimum temperature yesterday: 29 °F (at 3:00 AM)
Average temperature yesterday: 38 °F

Past Weeks' High & Low Weather Summary

 TemperatureHumidityPressure
High49 °F (Feb 26, 3:00 PM)96% (Feb 17, 6:00 AM)30.73 "Hg (Feb 17, 6:00 AM)
Low25 °F (Feb 17, 3:00 AM)51% (Feb 28, 5:00 PM)29.26 "Hg (Feb 21, 6:00 AM)
Average38 °F83%29.91 "Hg
* Reported Feb 14 9:00 PM — Mar 1 9:00 PM, Emmen, Weather by CustomWeather, © 2015

Note: Actual official high and low records may vary slightly from our data, if they occured in-between our weather recording intervals... More about our weather records

Advertising

Emmen weather history for previous 24 hours

 ConditionsComfort  
Time TempWeatherWind HumidityBarometerVisibility
9:00 PM
Sun, Mar 1
42 °FQuite cool.3 mph72%29.50 "Hg6 mi
8:00 PM42 °FQuite cool.3 mph71%29.50 "Hg7 mi
7:00 PM44 °FQuite cool.3 mph67%29.54 "Hg8 mi
6:00 PM46 °FCool.6 mph63%29.54 "Hg8 mi
5:00 PM47 °FCool.7 mph63%29.53 "Hg7 mi
3:00 PM46 °FCool.8 mph70%29.50 "Hg7 mi
2:00 PM48 °FCool.8 mph62%29.50 "Hg7 mi
1:00 PM47 °FCool.8 mph67%29.50 "Hg7 mi
12:00 PM48 °FCool.9 mph67%29.47 "Hg7 mi
11:00 AM49 °FCool.8 mph75%29.47 "Hg6 mi
9:00 AM45 °FQuite cool.7 mph88%29.44 "Hg7 mi
8:00 AMN/APassing clouds.12 mphN/AN/A3 mi
6:00 AM40 °FQuite cool.7 mph87%29.47 "Hg3 mi
5:00 AM42 °FQuite cool.8 mph71%29.47 "Hg6 mi
3:00 AM41 °FQuite cool.7 mph70%29.57 "Hg8 mi
2:00 AM43 °FQuite cool.7 mph58%29.62 "Hg5 mi
1:00 AM44 °FPassing clouds.6 mph53%29.66 "Hg2 mi
12:00 AM44 °FQuite cool.7 mph53%29.70 "Hg9 mi
11:00 PM
Sat, Feb 28
44 °FQuite cool.7 mph53%29.74 "Hg7 mi
Weather by CustomWeather, © 2015

See weather overviewHow to use our weather pages